Location: Azenweiler
(47.8027°N, 9.4096°E)
Time: 17:08:09
(UTC+00:00)

SL-4 R/B - Pass Details

Date: 10 December 2025
Orbit: 385 x 521 km, 51.6° (Epoch: 22 January)

Event Time Altitude Azimuth Distance (km) Brightness Sun altitude
Exits shadow 05:28:40 32° 297° (WNW) 705 2.0 -14.6°
Maximum altitude 05:30:00 84° 21° (NNE) 401 1.3 -14.4°
Drops below altitude 10° 05:33:10 10° 112° (ESE) 1,415 5.6 -13.9°
Sets 05:35:12 0° 113° (ESE) 2,262 7.2 -13.6°
